DH1NAI Weather Reports


time (UTC)temp
C
wind
direction
speed
KPH
gust
KPH
rain 1hr
cm
rain 24hr
cm
rain mn
cm
humidity
%
barometer
mb
20220525134102 16 0 0.0 0.0 0.00 0.00 0.00 50 947.5
20220525133121 16 0 0.0 0.0 0.00 0.00 0.00 55 947.5
20220525132145 17 0 0.0 0.0 0.00 0.00 0.00 55 947.6
20220525131203 17 0 0.0 0.0 0.00 0.00 0.00 56 947.5
20220525130215 16 0 0.0 0.0 0.00 0.00 0.00 55 947.6
20220525125232 16 0 0.0 0.0 0.00 0.00 0.00 57 947.6
20220525124254 16 0 0.0 0.0 0.00 0.00 0.00 56 947.6
20220525123315 16 0 0.0 0.0 0.00 0.00 0.00 52 947.5
20220525122334 17 0 0.0 0.0 0.00 0.00 0.00 55 947.5
20220525121351 16 0 0.0 0.0 0.00 0.00 0.00 54 947.4
20220525120402 15 0 0.0 0.0 0.00 0.00 0.00 57 947.4
20220525115419 15 0 0.0 0.0 0.00 0.00 0.00 55 947.3
20220525114437 16 0 0.0 0.0 0.00 0.00 0.00 55 947.4
20220525113456 16 0 0.0 0.0 0.00 0.00 0.00 57 947.4
20220525112512 16 0 0.0 0.0 0.00 0.00 0.00 53 947.5
20220525111533 16 0 0.0 0.0 0.00 0.00 0.00 53 947.5
20220525110542 16 0 0.0 0.0 0.00 0.00 0.00 56 947.5
20220525105558 15 0 0.0 0.0 0.00 0.00 0.00 59 947.7
20220525104615 15 0 0.0 0.0 0.00 0.00 0.00 59 947.6
20220525103632 15 0 0.0 0.0 0.00 0.00 0.00 56 947.6
20220525102650 15 0 0.0 0.0 0.00 0.00 0.00 55 947.5
20220525101706 15 0 0.0 0.0 0.00 0.00 0.00 57 947.6
20220525100722 15 0 0.0 0.0 0.00 0.00 0.00 60 947.6
20220525095739 14 0 0.0 0.0 0.00 0.00 0.00 61 947.7
20220525094758 15 0 0.0 0.0 0.00 0.00 0.00 60 947.5
20220525093816 15 0 0.0 0.0 0.00 0.00 0.00 61 947.4
20220525092833 15 0 0.0 0.0 0.00 0.00 0.00 59 947.4
20220525091850 15 0 0.0 0.0 0.00 0.00 0.00 61 947.4
20220525090905 15 0 0.0 0.0 0.00 0.00 0.00 59 947.3
20220525085925 14 0 0.0 0.0 0.00 0.00 0.00 60 947.3
20220525084944 14 0 0.0 0.0 0.00 0.00 0.00 62 947.2
20220525083959 14 0 0.0 0.0 0.00 0.00 0.00 62 947.2
20220525083016 13 0 0.0 0.0 0.00 0.00 0.00 66 947.3
20220525082036 13 0 0.0 0.0 0.00 0.00 0.00 68 947.4
20220525081052 13 0 0.0 0.0 0.00 0.00 0.00 72 947.4
20220525080115 13 0 0.0 0.0 0.00 0.00 0.00 72 947.5
20220525075134 13 0 0.0 0.0 0.00 0.00 0.00 71 947.4
20220525074145 13 0 0.0 0.0 0.00 0.00 0.00 69 947.3
20220525073207 12 0 0.0 0.0 0.00 0.00 0.00 69 947.3
20220525072224 12 0 0.0 0.0 0.00 0.00 0.00 75 947.2
20220525071240 12 0 0.0 0.0 0.00 0.00 0.00 76 947.1
20220525070253 12 0 0.0 0.0 0.00 0.00 0.00 85 947.1
20220525065316 12 0 0.0 0.0 0.00 0.00 0.00 88 947.0
20220525064329 12 0 0.0 0.0 0.00 0.00 0.00 91 946.9
20220525063347 11 0 0.0 0.0 0.00 0.00 0.00 93 946.9
20220525061425 11 0 0.0 0.0 0.00 0.00 0.00 10 946.7
20220525060442 11 0 0.0 0.0 0.00 0.00 0.00 10 946.5
20220525055500 10 0 0.0 0.0 0.00 0.00 0.00 10 946.4
20220525054519 10 0 0.0 0.0 0.00 0.00 0.00 98 946.2
20220525053537 10 0 0.0 0.0 0.00 0.00 0.00 10 946.2
20220525052555 10 0 0.0 0.0 0.00 0.00 0.00 10 946.4
20220525051616 10 0 0.0 0.0 0.00 0.00 0.00 10 946.3
20220525050631 10 0 0.0 0.0 0.00 0.00 0.00 10 946.1
20220525045650 10 0 0.0 0.0 0.00 0.00 0.00 10 946.0
20220525044710 10 0 0.0 0.0 0.00 0.00 0.00 10 945.9
20220525043727 9 0 0.0 0.0 0.00 0.00 0.00 10 945.8
20220525042746 10 0 0.0 0.0 0.00 0.00 0.00 10 945.8
20220525041804 9 0 0.0 0.0 0.00 0.00 0.00 10 945.8
20220525040823 9 0 0.0 0.0 0.00 0.00 0.00 10 945.7
20220525035842 9 0 0.0 0.0 0.00 0.00 0.00 10 945.6
20220525034900 9 0 0.0 0.0 0.00 0.00 0.00 10 945.7
20220525033921 9 0 0.0 0.0 0.00 0.00 0.00 10 945.5
20220525032939 8 0 0.0 0.0 0.00 0.00 0.00 10 945.4
20220525032001 9 0 0.0 0.0 0.00 0.00 0.00 10 945.4
20220525031014 9 0 0.0 0.0 0.00 0.00 0.00 10 945.3
20220525030032 9 0 0.0 0.0 0.00 0.00 0.00 10 945.2
20220525025053 8 0 0.0 0.0 0.00 0.00 0.00 10 945.0
20220525024111 9 0 0.0 0.0 0.00 0.00 0.00 99 945.0
20220525023130 8 0 0.0 0.0 0.00 0.00 0.00 10 945.0
20220525022147 8 0 0.0 0.0 0.00 0.00 0.00 10 944.9
20220525021206 8 0 0.0 0.0 0.00 0.00 0.00 10 944.8
20220525020225 9 0 0.0 0.0 0.00 0.00 0.00 97 944.7
20220525015243 8 0 0.0 0.0 0.00 0.00 0.00 10 944.7
20220525014304 8 0 0.0 0.0 0.00 0.00 0.00 10 944.8
20220525013321 8 0 0.0 0.0 0.00 0.00 0.00 10 944.9
20220525012342 8 0 0.0 0.0 0.00 0.00 0.00 99 944.9
20220525011359 8 0 0.0 0.0 0.00 0.00 0.00 96 944.8
20220525010417 8 0 0.0 0.0 0.00 0.00 0.00 96 944.7
20220525005438 8 0 0.0 0.0 0.00 0.00 0.00 98 944.7
20220525004454 8 0 0.0 0.0 0.00 0.00 0.00 96 944.8
20220525003514 8 0 0.0 0.0 0.00 0.00 0.00 94 944.8
20220525002532 8 0 0.0 0.0 0.00 0.00 0.00 94 945.0
20220525001550 7 0 0.0 0.0 0.00 0.00 0.00 93 944.9
20220525000609 7 0 0.0 0.0 0.00 0.00 0.00 92 944.8
20220524235626 7 0 0.0 0.0 0.00 0.00 0.00 90 944.7
20220524234644 7 0 0.0 0.0 0.00 0.00 0.00 90 944.5
20220524233703 7 0 0.0 0.0 0.00 0.00 0.00 87 944.6
20220524232722 7 0 0.0 0.0 0.00 0.00 0.00 90 944.6
20220524231741 7 0 0.0 0.0 0.00 0.00 0.00 88 944.5
20220524230800 7 0 0.0 0.0 0.00 0.00 0.00 89 944.7
20220524225819 7 0 0.0 0.0 0.00 0.00 0.00 89 944.8
20220524224837 7 0 0.0 0.0 0.00 0.00 0.00 89 944.8
20220524223858 7 0 0.0 0.0 0.00 0.00 0.00 90 944.8
20220524222916 7 0 0.0 0.0 0.00 0.00 0.00 89 944.5
20220524221935 7 0 0.0 0.0 0.00 0.00 0.00 88 944.5
20220524220955 7 0 0.0 0.0 0.00 0.00 0.00 89 944.5
20220524220014 7 0 0.0 0.0 0.00 0.00 0.00 89 944.4
20220524215030 8 0 0.0 0.0 0.00 0.00 0.00 86 944.4
20220524214048 7 0 0.0 0.0 0.00 0.00 0.00 88 944.1
20220524213110 8 0 0.0 0.0 0.00 0.00 0.00 88 944.1
20220524212126 8 0 0.0 0.0 0.00 0.00 0.00 88 944.1
20220524211144 8 0 0.0 0.0 0.00 0.00 0.00 87 944.1
20220524210202 8 0 0.0 0.0 0.00 0.00 0.00 87 944.1
20220524205222 8 0 0.0 0.0 0.00 0.00 0.00 85 944.1
20220524204241 8 0 0.0 0.0 0.00 0.00 0.00 86 944.2
20220524203303 9 0 0.0 0.0 0.00 0.00 0.00 86 944.2
20220524202320 9 0 0.0 0.0 0.00 0.00 0.00 86 944.1
20220524201344 10 0 0.0 0.0 0.00 0.00 0.00 86 944.0
20220524200357 10 0 0.0 0.0 0.00 0.00 0.00 84 943.8
20220524195416 10 0 0.0 0.0 0.00 0.00 0.00 85 943.7
20220524194442 11 0 0.0 0.0 0.00 0.00 0.00 83 943.5
20220524193456 11 0 0.0 0.0 0.00 0.00 0.00 83 943.5
20220524192517 12 0 0.0 0.0 0.00 0.00 0.00 83 943.3
20220524191537 12 0 0.0 0.0 0.00 0.00 0.00 82 943.3
20220524190552 12 0 0.0 0.0 0.00 0.00 0.00 78 943.2
20220524185618 13 0 0.0 0.0 0.00 0.00 0.00 69 942.9
20220524184639 15 0 0.0 0.0 0.00 0.00 0.00 65 942.7
20220524183651 15 0 0.0 0.0 0.00 0.00 0.00 65 942.6
20220524182710 15 0 0.0 0.0 0.00 0.00 0.00 64 942.4
20220524181729 15 0 0.0 0.0 0.00 0.00 0.00 65 942.3
20220524180744 15 0 0.0 0.0 0.00 0.00 0.00 61 942.2
20220524175803 15 0 0.0 0.0 0.00 0.00 0.00 59 942.1
20220524174827 16 0 0.0 0.0 0.00 0.00 0.00 62 942.0
20220524173840 16 0 0.0 0.0 0.00 0.00 0.00 60 941.9
20220524172903 16 0 0.0 0.0 0.00 0.00 0.00 62 941.9
20220524171920 16 0 0.0 0.0 0.00 0.00 0.00 62 941.9
20220524170936 16 0 0.0 0.0 0.00 0.00 0.00 62 941.8
20220524165957 16 0 0.0 0.0 0.00 0.00 0.00 62 941.7
20220524165015 16 0 0.0 0.0 0.00 0.00 0.00 59 941.6
20220524164032 16 0 0.0 0.0 0.00 0.00 0.00 59 941.5
20220524163049 16 0 0.0 0.0 0.00 0.00 0.00 60 941.4
20220524162108 16 0 0.0 0.0 0.00 0.00 0.00 60 941.3
20220524161124 16 0 0.0 0.0 0.00 0.00 0.00 63 941.3
20220524160141 16 0 0.0 0.0 0.00 0.00 0.00 63 941.2
20220524155200 17 0 0.0 0.0 0.00 0.00 0.00 62 941.1
20220524154217 17 0 0.0 0.0 0.00 0.00 0.00 61 941.0
20220524153235 16 0 0.0 0.0 0.00 0.00 0.00 61 941.0
20220524152253 16 0 0.0 0.0 0.00 0.00 0.00 61 941.0
20220524151309 16 0 0.0 0.0 0.00 0.00 0.00 63 941.0
20220524150328 17 0 0.0 0.0 0.00 0.00 0.00 62 941.0
20220524145344 16 0 0.0 0.0 0.00 0.00 0.00 65 941.0
20220524144404 16 0 0.0 0.0 0.00 0.00 0.00 64 940.9
20220524143419 16 0 0.0 0.0 0.00 0.00 0.00 59 940.8
20220524142435 17 0 0.0 0.0 0.00 0.00 0.00 59 940.7
20220524141450 17 0 0.0 0.0 0.00 0.00 0.00 63 940.5
20220524140504 16 0 0.0 0.0 0.00 0.00 0.00 64 940.4
20220524135521 16 0 0.0 0.0 0.00 0.00 0.00 65 940.6
20220524134540 16 0 0.0 0.0 0.00 0.00 0.00 65 940.4